Date String (YYYY-MM-DD hh:mm:ss) UTC,Instrument flags,Ambient pressure (hPa),Sample flow (lpm),Bypass flow (lpm),Sample temperature (°C),Ambient temperature (°C),ASC tube jacket temperature (°C),LED temperature (°C),Box temperature (°C),Sample RH (%),Span deviation,Mass concentration (μg/m³),Mass concentration (μg/m³),Mass concentration (μg/m³)
DateTimeUTC,F1_M11,P_M11,Q1_M11,Q2_M11,T1_M11,T2_M11,T3_M11,T4_M11,T5_M11,U1_M11,ZSPAN_M11,X2_M11,X0_M11,X1_M11
2022-01-06 03:00:00,,0824.2,5.00,0.00,21.3,21.6,00.0,30.5,22.9,05.5,0001.2,0006.68,0012.02,0005.69
2022-01-06 03:01:00,,0824.3,4.99,0.00,21.5,22.3,00.0,30.5,23.2,05.4,0001.0,0006.61,0011.88,0005.65
2022-01-06 03:02:00,,0824.3,5.00,0.00,21.6,22.7,00.0,30.6,23.4,05.3,0001.1,0006.53,0011.71,0005.62
2022-01-06 03:03:00,,0824.3,5.01,0.00,21.7,22.4,00.0,30.6,23.3,05.3,0001.3,0006.49,0012.03,0005.59
2022-01-06 03:04:00,,0824.3,4.99,0.00,21.5,21.8,00.0,30.6,23.0,05.3,0001.3,0006.44,0011.77,0005.57
2022-01-06 03:05:00,,0824.3,5.01,0.00,21.4,21.3,00.0,30.6,22.7,05.3,0001.3,0006.44,0012.52,0005.55
2022-01-06 03:06:00,,0824.4,5.00,0.00,21.3,20.8,00.0,30.5,22.5,05.4,0001.2,0006.41,0012.58,0005.52
2022-01-06 03:07:00,,0824.4,4.99,0.00,21.2,20.9,00.0,30.5,22.5,05.4,0001.4,0006.44,0012.60,0005.51
2022-01-06 03:08:00,,0824.4,5.00,0.00,21.3,21.6,00.0,30.5,22.9,05.3,0001.3,0006.47,0012.66,0005.51
2022-01-06 03:09:00,,0824.4,5.01,0.00,21.5,22.4,00.0,30.6,23.2,05.3,0001.2,0006.49,0012.79,0005.52
2022-01-06 03:10:00,,0824.4,4.99,0.00,21.7,22.9,00.0,30.6,23.5,05.3,0001.2,0006.48,0012.80,0005.51
2022-01-06 03:11:00,,0824.4,5.01,0.00,21.7,22.5,00.0,30.6,23.4,05.2,0001.8,0006.52,0012.43,0005.53
2022-01-06 03:12:00,,0824.2,5.01,0.00,21.6,22.0,00.0,30.6,23.1,05.3,0001.9,0006.50,0012.43,0005.52
2022-01-06 03:13:00,,0824.2,4.98,0.00,21.4,21.4,00.0,30.6,22.8,05.3,0001.8,0006.54,0012.57,0005.50
2022-01-06 03:14:00,,0824.4,5.01,0.00,21.3,20.9,00.0,30.6,22.6,05.3,0001.9,0006.54,0012.21,0005.50
2022-01-06 03:15:00,,0824.5,5.00,0.00,21.2,20.7,00.0,30.5,22.4,05.3,0001.6,0006.56,0012.24,0005.50
2022-01-06 03:16:00,,0824.5,5.00,0.00,21.2,21.2,00.0,30.5,22.7,05.3,0001.6,0006.58,0011.79,0005.52
2022-01-06 03:17:00,,0824.3,4.99,0.00,21.4,21.9,00.0,30.5,23.0,05.3,0001.4,0006.59,0011.66,0005.53
2022-01-06 03:18:00,,0824.4,5.01,0.00,21.6,22.6,00.0,30.6,23.3,05.2,0001.4,0006.57,0011.69,0005.52
2022-01-06 03:19:00,,0824.4,4.99,0.00,21.7,22.7,00.0,30.6,23.4,05.1,0001.4,0006.53,0011.65,0005.49
2022-01-06 03:20:00,,0824.4,5.01,0.00,21.6,22.1,00.0,30.6,23.1,05.1,0001.7,0006.46,0011.45,0005.47
2022-01-06 03:21:00,,0824.4,5.00,0.00,21.5,21.6,00.0,30.6,22.8,05.2,0001.9,0006.47,0011.55,0005.45
2022-01-06 03:22:00,,0824.4,5.00,0.00,21.3,21.1,00.0,30.6,22.6,05.2,0001.8,0006.47,0011.63,0005.42
2022-01-06 03:23:00,,0824.5,5.00,0.00,21.2,20.7,00.0,30.5,22.4,05.2,0001.8,0006.48,0011.77,0005.41
2022-01-06 03:24:00,,0824.5,5.00,0.00,21.1,20.8,00.0,30.5,22.4,05.3,0002.0,0006.42,0011.71,0005.40
2022-01-06 03:25:00,,0824.4,5.00,0.00,21.3,21.5,00.0,30.5,22.8,05.2,0002.2,0006.43,0012.24,0005.40
2022-01-06 03:26:00,,0824.6,4.99,0.00,21.4,22.2,00.0,30.5,23.1,05.1,0002.4,0006.44,0012.57,0005.39
2022-01-06 03:27:00,,0824.5,5.00,0.00,21.6,22.8,00.0,30.6,23.4,05.1,0002.3,0006.41,0012.44,0005.37
2022-01-06 03:28:00,,0824.4,5.02,0.00,21.6,22.5,00.0,30.6,23.3,05.1,0002.7,0006.38,0012.36,0005.35
2022-01-06 03:29:00,,0824.5,5.00,0.00,21.5,21.9,00.0,30.6,23.0,05.1,0002.7,0006.35,0012.19,0005.35
2022-01-06 03:30:00,,0824.4,5.00,0.00,21.4,21.4,00.0,30.6,22.7,05.1,0002.6,0006.39,0012.30,0005.35
2022-01-06 03:31:00,,0824.5,4.99,0.00,21.2,20.9,00.0,30.5,22.5,05.1,0002.3,0006.46,0012.48,0005.36
2022-01-06 03:32:00,,0824.4,5.02,0.00,21.2,21.0,00.0,30.5,22.5,05.2,0002.3,0006.45,0012.45,0005.35
2022-01-06 03:33:00,,0824.5,4.99,0.00,21.3,21.6,00.0,30.5,22.8,05.1,0002.2,0006.49,0012.53,0005.39
2022-01-06 03:34:00,,0824.7,5.01,0.00,21.5,22.3,00.0,30.5,23.2,05.1,0002.3,0006.51,0012.62,0005.39
2022-01-06 03:35:00,,0824.7,5.00,0.00,21.6,22.8,00.0,30.6,23.4,05.0,0002.1,0006.53,0012.65,0005.39
2022-01-06 03:36:00,,0824.5,5.01,0.00,21.7,22.4,00.0,30.6,23.3,05.0,0002.1,0006.48,0012.28,0005.36
2022-01-06 03:37:00,,0824.4,4.99,0.00,21.6,21.9,00.0,30.6,23.1,05.0,0002.0,0006.47,0012.34,0005.36
2022-01-06 03:38:00,,0824.5,4.99,0.00,21.4,21.3,00.0,30.6,22.8,05.1,0002.1,0006.43,0012.33,0005.35
2022-01-06 03:39:00,,0824.4,5.02,0.00,21.3,20.9,00.0,30.5,22.5,05.1,0001.9,0006.44,0012.60,0005.35
2022-01-06 03:40:00,,0824.4,4.98,0.00,21.2,20.6,00.0,30.5,22.4,05.1,0002.1,0006.42,0012.62,0005.36
2022-01-06 03:41:00,,0824.8,5.00,0.00,21.2,21.1,00.0,30.5,22.6,05.1,0002.0,0006.41,0012.53,0005.36
2022-01-06 03:42:00,,0824.7,5.00,0.00,21.4,21.9,00.0,30.5,23.0,05.1,0002.0,0006.37,0012.44,0005.36
2022-01-06 03:43:00,,0824.6,4.99,0.00,21.5,22.5,00.0,30.6,23.3,05.0,0002.1,0006.33,0012.26,0005.36
2022-01-06 03:44:00,,0824.5,4.99,0.00,21.7,22.8,00.0,30.6,23.4,05.0,0002.0,0006.32,0012.32,0005.34
2022-01-06 03:45:00,,0824.5,5.00,0.00,21.6,21.9,00.0,30.6,23.2,05.0,0001.6,0006.29,0012.31,0005.35
2022-01-06 03:46:00,,0824.6,5.00,0.00,21.5,21.1,00.0,30.6,22.9,05.0,0001.7,0006.29,0012.47,0005.36
2022-01-06 03:47:00,,0824.7,4.99,0.00,21.4,20.5,00.0,30.5,22.7,05.1,0001.3,0006.34,0012.62,0005.38
2022-01-06 03:48:00,,0824.8,5.00,0.00,21.2,20.1,00.0,30.5,22.5,05.1,0001.0,0006.35,0012.64,0005.40
2022-01-06 03:49:00,,0824.9,5.01,0.00,21.1,19.9,00.0,30.4,22.4,05.1,0001.2,0006.36,0013.09,0005.40
2022-01-06 03:50:00,,0824.8,5.00,0.00,21.1,20.7,00.0,30.4,22.5,05.2,0001.5,0006.38,0012.96,0005.42
2022-01-06 03:51:00,,0824.7,4.99,0.00,21.3,21.6,00.0,30.4,22.9,05.1,0000.9,0006.42,0013.35,0005.41
2022-01-06 03:52:00,,0824.9,5.01,0.00,21.4,22.4,00.0,30.5,23.2,05.1,0001.3,0006.45,0013.80,0005.39
2022-01-06 03:53:00,,0824.9,5.00,0.00,21.5,22.3,00.0,30.5,23.2,05.0,0001.7,0006.44,0013.77,0005.38
2022-01-06 03:54:00,,0824.8,5.00,0.00,21.5,21.7,00.0,30.5,23.0,05.0,0001.4,0006.47,0013.94,0005.36
2022-01-06 03:55:00,,0824.8,5.00,0.00,21.4,21.0,00.0,30.5,22.8,05.1,0001.1,0006.45,0013.83,0005.34
2022-01-06 03:56:00,,0824.8,5.01,0.00,21.2,20.5,00.0,30.4,22.5,05.1,0001.1,0006.44,0013.65,0005.33
2022-01-06 03:57:00,,0824.7,5.00,0.00,21.1,20.2,00.0,30.4,22.3,05.2,0001.4,0006.42,0013.34,0005.33
2022-01-06 03:58:00,,0824.7,4.99,0.00,21.0,20.3,00.0,30.3,22.3,05.2,0001.7,0006.40,0013.19,0005.32
2022-01-06 03:59:00,,0824.9,5.00,0.00,21.1,21.2,00.0,30.4,22.6,05.1,0001.7,0006.40,0012.74,0005.32
